[TLELIST] Archives

 

[TLELIST] Current TLEs

December 3rd 2025 PST

0 HST 1 20580U 90037B 25337.32134242 .00010177 00000-0 35555-3 0 9997 2 20580 28.4702 336.5846 0002084 133.3570 226.7199 15.27838155758552 0 ISS (ZARYA) 1 25544U 98067A 25337.05982217 .00011670 00000-0 21765-3 0 9993 2 25544 51.6309 190.4017 0003620 198.7080 161.3776 15.49262423541359 0 CXO 1 25867U 99040B 25338.68200842 .00000554 00000-0 00000-0 0 9995 2 25867 52.9229 122.7525 8158420 310.8200 359.9020 0.37807060 16595 ...Continue Reading

[TLELIST] Current TLEs

December 3rd 2025 PST

0 HST 1 20580U 90037B 25337.32134242 .00010177 00000-0 35555-3 0 9997 2 20580 28.4702 336.5846 0002084 133.3570 226.7199 15.27838155758552 0 ISS (ZARYA) 1 25544U 98067A 25337.05982217 .00011670 00000-0 21765-3 0 9993 2 25544 51.6309 190.4017 0003620 198.7080 161.3776 15.49262423541359 0 CXO 1 25867U 99040B 25338.68200842 .00000554 00000-0 00000-0 0 9995 2 25867 52.9229 122.7525 8158420 310.8200 359.9020 0.37807060 16595 ...Continue Reading

[TLELIST] Current TLEs

December 2nd 2025 PST

0 HST 1 20580U 90037B 25336.14556716 .00009001 00000-0 31384-3 0 9990 2 20580 28.4702 344.5846 0002112 122.2062 237.8738 15.27814443758372 0 ISS (ZARYA) 1 25544U 98067A 25336.09225230 .00009217 00000-0 17381-3 0 9994 2 25544 51.6314 195.1903 0003639 193.8265 166.2625 15.49237019541206 0 CXO 1 25867U 99040B 25336.03855559 .00000621 00000-0 00000-0 0 9998 2 25867 52.8404 122.9019 8162740 310.7579 0.1545 0.37806858 16576 ...Continue Reading

[TLELIST] Current TLEs

December 1st 2025 PST

0 HST 1 20580U 90037B 25335.16574123 .00008347 00000-0 29066-3 0 9999 2 20580 28.4702 351.2512 0002119 112.7363 247.3456 15.27796369758225 0 ISS (ZARYA) 1 25544U 98067A 25335.06016206 .00009187 00000-0 17339-3 0 9990 2 25544 51.6309 200.2993 0003638 188.9407 171.1518 15.49217814541048 0 CXO 1 25867U 99040B 25336.03855559 .00000621 00000-0 00000-0 0 9998 2 25867 52.8404 122.9019 8162740 310.7579 0.1545 0.37806858 16576 ...Continue Reading

[TLELIST] Current TLEs

November 30th 2025 PST

0 HST 1 20580U 90037B 25334.12058112 .00009045 00000-0 31576-3 0 9994 2 20580 28.4702 358.3621 0002114 102.7103 257.3728 15.27779480758060 0 ISS (ZARYA) 1 25544U 98067A 25333.89904475 .00008908 00000-0 16851-3 0 9991 2 25544 51.6312 206.0453 0003727 184.4038 175.6918 15.49196254540863 0 CXO 1 25867U 99040B 25336.03855559 .00000621 00000-0 00000-0 0 9998 2 25867 52.8404 122.9019 8162740 310.7579 0.1545 0.37806858 16576 ...Continue Reading

[TLELIST] Current TLEs

November 30th 2025 PST

0 HST 1 20580U 90037B 25334.12058112 .00009045 00000-0 31576-3 0 9994 2 20580 28.4702 358.3621 0002114 102.7103 257.3728 15.27779480758060 0 ISS (ZARYA) 1 25544U 98067A 25333.89904475 .00008908 00000-0 16851-3 0 9991 2 25544 51.6312 206.0453 0003727 184.4038 175.6918 15.49196254540863 0 CXO 1 25867U 99040B 25336.03855559 .00000621 00000-0 00000-0 0 9998 2 25867 52.8404 122.9019 8162740 310.7579 0.1545 0.37806858 16576 ...Continue Reading

[TLELIST] Current TLEs

November 29th 2025 PST

0 HST 1 20580U 90037B 25333.20605602 .00008158 00000-0 28420-3 0 9992 2 20580 28.4702 4.5841 0002109 94.2560 265.8276 15.27762687757927 0 ISS (ZARYA) 1 25544U 98067A 25332.93143523 .00009407 00000-0 17759-3 0 9997 2 25544 51.6312 210.8341 0003738 180.7008 179.3975 15.49177370540716 0 CXO 1 25867U 99040B 25336.03823780 .00000621 00000-0 00000+0 0 9998 2 25867 52.8404 122.9021 8162724 310.7577 0.1110 0.37807319 16570 ...Continue Reading

[TLELIST] Current TLEs

November 28th 2025 PST

0 HST 1 20580U 90037B 25332.16087280 .00008193 00000-0 28563-3 0 9999 2 20580 28.4701 11.6949 0002095 84.1841 275.8992 15.27745701757764 0 ISS (ZARYA) 1 25544U 98067A 25331.89930486 .00004025 00000-0 80753-4 0 9999 2 25544 51.6314 215.9428 0003868 177.5993 182.5015 15.49155559540559 0 CXO 1 25867U 99040B 25333.39454924 .00000722 00000-0 00000-0 0 9997 2 25867 52.7584 123.0489 8164697 310.7158 0.2585 0.37803381 16565 ...Continue Reading

[TLELIST] Current TLEs

November 28th 2025 PST

0 HST 1 20580U 90037B 25332.16087280 .00008193 00000-0 28563-3 0 9999 2 20580 28.4701 11.6949 0002095 84.1841 275.8992 15.27745701757764 0 ISS (ZARYA) 1 25544U 98067A 25331.89930486 .00004025 00000-0 80753-4 0 9999 2 25544 51.6314 215.9428 0003868 177.5993 182.5015 15.49155559540559 0 CXO 1 25867U 99040B 25333.39454924 .00000722 00000-0 00000-0 0 9997 2 25867 52.7584 123.0489 8164697 310.7158 0.2585 0.37803381 16565 ...Continue Reading

[TLELIST] Current TLEs

November 27th 2025 PST

0 HST 1 20580U 90037B 25331.24632759 .00007676 00000-0 26723-3 0 9995 2 20580 28.4702 17.9168 0002069 75.4692 284.6133 15.27730621757620 0 ISS (ZARYA) 1 25544U 98067A 25331.18970139 .00009924 00000-0 18731-3 0 9999 2 25544 51.6312 219.4533 0003813 172.8713 187.2330 15.49112807540440 0 CXO 1 25867U 99040B 25333.39454924 .00000722 00000-0 00000-0 0 9997 2 25867 52.7584 123.0489 8164697 310.7158 0.2585 0.37803381 16565 ...Continue Reading
  • This mailing list is a public mailing list - anyone may join or leave, at any time.
  • This mailing list is announce-only.

International Space Station (ISS) / Hubble Space Telescope (HST) / Chandra X-Ray Observatory Orbital Data via EMAIL

Privacy Policy:

Private list